Time,TemperatureF,DewpointF,PressureIn,WindDirection,WindDirectionDegrees,WindSpeedMPH,WindSpeedGustMPH,Humidity,HourlyPrecipIn,Conditions,Clouds,dailyrainin,SolarRadiationWatts/m^2,SoftwareType,DateUTC
2013-04-13 00:00:00,34.4,33.4,29.87,North,11,4.0,4.0,96,0.00,,,0.00,0,Wunderground v.1.15,2013-04-13 04:00:00,
2013-04-13 00:10:00,34.3,33.3,29.87,NE,38,3.0,3.0,96,0.00,,,0.00,0,Wunderground v.1.15,2013-04-13 04:10:00,
2013-04-13 00:20:00,34.3,33.3,29.87,North,9,2.0,2.0,96,0.00,,,0.00,0,Wunderground v.1.15,2013-04-13 04:20:00,
2013-04-13 00:30:00,34.2,33.2,29.86,ENE,63,1.0,2.0,96,0.00,,,0.00,0,Wunderground v.1.15,2013-04-13 04:30:00,
2013-04-13 00:40:00,34.0,33.0,29.86,NE,39,3.0,14.0,96,0.00,,,0.00,0,Wunderground v.1.15,2013-04-13 04:40:00,
2013-04-13 00:50:00,34.1,33.1,29.86,NE,39,2.0,14.0,96,0.00,,,0.00,0,Wunderground v.1.15,2013-04-13 04:50:00,
2013-04-13 01:00:00,34.0,33.0,29.87,NNW,345,4.0,4.0,96,0.00,,,0.00,0,Wunderground v.1.15,2013-04-13 05:00:00,
2013-04-13 01:10:00,33.9,32.9,29.86,NNE,15,3.0,3.0,96,0.00,,,0.00,0,Wunderground v.1.15,2013-04-13 05:10:00,
2013-04-13 01:20:00,33.9,32.9,29.86,NNE,26,4.0,4.0,96,0.00,,,0.00,0,Wunderground v.1.15,2013-04-13 05:20:00,
2013-04-13 01:30:00,33.9,32.9,29.85,North,5,2.0,5.0,96,0.00,,,0.00,0,Wunderground v.1.15,2013-04-13 05:30:00,
2013-04-13 01:40:00,33.7,32.7,29.85,NNE,19,4.0,4.0,96,0.00,,,0.00,0,Wunderground v.1.15,2013-04-13 05:40:00,
2013-04-13 01:50:00,33.7,32.7,29.85,NNE,28,2.0,11.0,96,0.00,,,0.00,0,Wunderground v.1.15,2013-04-13 05:50:00,
2013-04-13 02:00:00,33.7,32.9,29.83,NNE,27,2.0,3.0,97,0.00,,,0.00,0,Wunderground v.1.15,2013-04-13 06:00:00,
2013-04-13 02:10:00,33.6,32.8,29.82,NE,37,4.0,8.0,97,0.00,,,0.00,0,Wunderground v.1.15,2013-04-13 06:10:00,
2013-04-13 02:20:00,33.7,32.9,29.81,NNW,342,3.0,3.0,97,0.00,,,0.00,0,Wunderground v.1.15,2013-04-13 06:20:00,
2013-04-13 02:40:00,33.4,32.4,29.80,NNE,26,4.0,4.0,96,0.00,,,0.00,0,Wunderground v.1.15,2013-04-13 06:40:00,
2013-04-13 02:50:00,33.4,32.4,29.82,NNE,28,3.0,3.0,96,0.00,,,0.00,0,Wunderground v.1.15,2013-04-13 06:50:00,
2013-04-13 03:00:00,33.2,32.4,29.82,NNE,24,2.0,2.0,97,0.00,,,0.00,0,Wunderground v.1.15,2013-04-13 07:00:00,
2013-04-13 03:20:00,33.0,32.0,29.82,NNE,19,3.0,4.0,96,0.00,,,0.00,0,Wunderground v.1.15,2013-04-13 07:20:00,
2013-04-13 03:50:00,33.0,32.2,29.82,NNW,343,3.0,3.0,97,0.00,,,0.00,0,Wunderground v.1.15,2013-04-13 07:50:00,
2013-04-13 04:00:00,33.0,32.2,29.85,North,10,2.0,2.0,97,0.00,,,0.00,0,Wunderground v.1.15,2013-04-13 08:00:00,
2013-04-13 04:20:00,33.0,32.2,29.82,NNE,22,4.0,4.0,97,0.00,,,0.00,0,Wunderground v.1.15,2013-04-13 08:20:00,
2013-04-13 04:30:00,32.6,31.8,29.81,NNE,15,3.0,3.0,97,0.00,,,0.00,0,Wunderground v.1.15,2013-04-13 08:30:00,
2013-04-13 04:40:00,32.5,31.5,29.81,NE,40,3.0,3.0,96,0.00,,,0.00,0,Wunderground v.1.15,2013-04-13 08:40:00,
2013-04-13 04:50:00,32.4,31.6,29.79,NNE,17,2.0,10.0,97,0.00,,,0.00,0,Wunderground v.1.15,2013-04-13 08:50:00,
2013-04-13 05:40:00,32.5,31.7,29.75,North,11,3.0,6.0,97,0.00,,,0.00,0,Wunderground v.1.15,2013-04-13 09:40:00,
2013-04-13 05:50:00,32.6,31.8,29.76,NNW,347,3.0,6.0,97,0.00,,,0.00,0,Wunderground v.1.15,2013-04-13 09:50:00,
2013-04-13 06:00:00,32.6,31.8,29.77,NNE,13,3.0,3.0,97,0.00,,,0.00,5,Wunderground v.1.15,2013-04-13 10:00:00,
2013-04-13 06:10:00,32.6,31.8,29.79,NE,34,2.0,4.0,97,0.00,,,0.00,7,Wunderground v.1.15,2013-04-13 10:10:00,
2013-04-13 06:20:00,32.6,31.8,29.79,NNE,18,2.0,2.0,97,0.00,,,0.00,9,Wunderground v.1.15,2013-04-13 10:20:00,
2013-04-13 06:30:00,32.7,31.9,29.79,NE,42,3.0,3.0,97,0.00,,,0.00,12,Wunderground v.1.15,2013-04-13 10:30:00,
2013-04-13 06:40:00,32.7,31.9,29.79,NNE,29,3.0,10.0,97,0.00,,,0.00,23,Wunderground v.1.15,2013-04-13 10:40:00,
2013-04-13 06:50:00,32.8,32.0,29.78,NNE,15,3.0,10.0,97,0.00,,,0.00,42,Wunderground v.1.15,2013-04-13 10:50:00,
2013-04-13 07:00:00,32.9,32.1,29.79,NNW,346,3.0,3.0,97,0.00,,,0.00,54,Wunderground v.1.15,2013-04-13 11:00:00,
2013-04-13 07:30:00,33.5,32.7,29.81,NE,48,3.0,3.0,97,0.00,,,0.00,83,Wunderground v.1.15,2013-04-13 11:30:00,
2013-04-13 07:40:00,33.7,32.9,29.81,NNE,17,3.0,3.0,97,0.00,,,0.00,72,Wunderground v.1.15,2013-04-13 11:40:00,
2013-04-13 08:00:00,34.1,33.3,29.82,NNE,24,2.0,2.0,97,0.00,,,0.00,105,Wunderground v.1.15,2013-04-13 12:00:00,
2013-04-13 08:20:00,34.2,33.4,29.82,NE,34,2.0,6.0,97,0.00,,,0.00,91,Wunderground v.1.15,2013-04-13 12:20:00,
2013-04-13 08:30:00,34.1,33.1,29.81,NNE,18,4.0,4.0,96,0.00,,,0.00,74,Wunderground v.1.15,2013-04-13 12:30:00,
2013-04-13 08:50:00,34.3,33.3,29.81,NNE,19,3.0,8.0,96,0.00,,,0.00,93,Wunderground v.1.15,2013-04-13 12:50:00,
2013-04-13 09:22:00,34.5,33.5,29.81,NE,47,2.0,4.0,96,0.00,,,0.00,111,Wunderground v.1.15,2013-04-13 13:22:00,
2013-04-13 09:30:00,34.6,33.6,29.81,NNE,26,4.0,5.0,96,0.00,,,0.00,91,Wunderground v.1.15,2013-04-13 13:30:00,
2013-04-13 09:51:00,34.6,33.3,29.81,North,360,3.0,8.0,95,0.00,,,0.00,176,Wunderground v.1.15,2013-04-13 13:51:00,
2013-04-13 10:12:00,35.0,33.7,29.81,SW,222,3.0,3.0,95,0.00,,,0.00,193,Wunderground v.1.15,2013-04-13 14:12:00,
2013-04-13 10:20:00,35.3,33.7,29.81,NE,34,4.0,4.0,94,0.00,,,0.00,155,Wunderground v.1.15,2013-04-13 14:20:00,
2013-04-13 10:41:00,35.6,34.0,29.82,NNE,31,2.0,2.0,94,0.00,,,0.00,218,Wunderground v.1.15,2013-04-13 14:41:00,
2013-04-13 10:50:00,36.4,34.6,29.83,NE,52,2.0,2.0,93,0.00,,,0.00,246,Wunderground v.1.15,2013-04-13 14:50:00,
2013-04-13 10:51:00,36.1,34.8,29.83,NNE,31,1.0,1.0,95,0.00,,,0.00,229,Wunderground v.1.15,2013-04-13 14:51:00,
2013-04-13 11:10:00,37.1,35.0,29.82,NE,42,3.0,4.0,92,0.00,,,0.00,425,Wunderground v.1.15,2013-04-13 15:10:00,
2013-04-13 11:20:00,37.7,35.3,29.82,NNE,16,2.0,2.0,91,0.00,,,0.00,413,Wunderground v.1.15,2013-04-13 15:20:00,
2013-04-13 11:50:00,38.9,35.9,29.82,NE,35,1.0,8.0,89,0.00,,,0.00,369,Wunderground v.1.15,2013-04-13 15:50:00,
2013-04-13 12:12:00,38.9,35.9,29.82,NNE,28,2.0,2.0,89,0.00,,,0.00,378,Wunderground v.1.15,2013-04-13 16:12:00,
2013-04-13 12:20:00,38.9,35.9,29.82,NE,51,2.0,2.0,89,0.00,,,0.00,341,Wunderground v.1.15,2013-04-13 16:20:00,
2013-04-13 13:01:00,39.8,36.0,29.81,South,182,1.0,7.0,86,0.00,,,0.00,290,Wunderground v.1.15,2013-04-13 17:01:00,
2013-04-13 13:10:00,39.9,36.3,29.81,NNE,24,3.0,3.0,87,0.00,,,0.00,290,Wunderground v.1.15,2013-04-13 17:10:00,
2013-04-13 13:12:00,40.0,36.2,29.81,North,5,3.0,3.0,86,0.00,,,0.00,295,Wunderground v.1.15,2013-04-13 17:12:00,
2013-04-13 13:31:00,40.0,36.2,29.82,NE,38,2.0,3.0,86,0.00,,,0.00,213,Wunderground v.1.15,2013-04-13 17:31:00,
2013-04-13 13:42:00,40.2,36.3,29.82,WSW,241,2.0,2.0,86,0.00,,,0.00,302,Wunderground v.1.15,2013-04-13 17:42:00,
2013-04-13 13:51:00,40.7,36.2,29.82,NNE,30,1.0,6.0,84,0.00,,,0.00,214,Wunderground v.1.15,2013-04-13 17:51:00,
2013-04-13 14:12:00,40.9,36.4,29.81,NNE,32,2.0,2.0,84,0.00,,,0.00,362,Wunderground v.1.15,2013-04-13 18:12:00,
2013-04-13 14:20:00,41.5,36.7,29.81,NNE,33,3.0,3.0,83,0.00,,,0.00,362,Wunderground v.1.15,2013-04-13 18:20:00,
2013-04-13 14:30:00,42.2,37.1,29.81,NE,34,2.0,2.0,82,0.00,,,0.00,615,Wunderground v.1.15,2013-04-13 18:30:00,
2013-04-13 14:40:00,42.9,37.5,29.81,NE,36,2.0,7.0,81,0.00,,,0.00,274,Wunderground v.1.15,2013-04-13 18:40:00,
2013-04-13 14:50:00,43.3,37.5,29.80,NE,40,2.0,8.0,80,0.00,,,0.00,410,Wunderground v.1.15,2013-04-13 18:50:00,
2013-04-13 15:00:00,44.0,37.6,29.80,North,349,2.0,3.0,78,0.00,,,0.00,445,Wunderground v.1.15,2013-04-13 19:00:00,
2013-04-13 15:10:00,44.4,38.3,29.79,SE,132,2.0,2.0,79,0.00,,,0.00,613,Wunderground v.1.15,2013-04-13 19:10:00,
2013-04-13 15:20:00,44.3,37.2,29.80,NNW,346,4.0,4.0,76,0.00,,,0.00,601,Wunderground v.1.15,2013-04-13 19:20:00,
2013-04-13 15:30:00,44.7,37.9,29.80,NNE,30,2.0,5.0,77,0.00,,,0.00,768,Wunderground v.1.15,2013-04-13 19:30:00,
2013-04-13 15:40:00,45.1,37.6,29.80,NNE,28,2.0,7.0,75,0.00,,,0.00,710,Wunderground v.1.15,2013-04-13 19:40:00,
2013-04-13 15:50:00,45.2,37.7,29.80,NNE,24,2.0,7.0,75,0.00,,,0.00,246,Wunderground v.1.15,2013-04-13 19:50:00,
2013-04-13 16:00:00,45.3,37.5,29.79,North,5,2.0,3.0,74,0.00,,,0.00,237,Wunderground v.1.15,2013-04-13 20:00:00,
2013-04-13 16:10:00,45.3,37.5,29.79,WNW,295,1.0,1.0,74,0.00,,,0.00,174,Wunderground v.1.15,2013-04-13 20:10:00,
2013-04-13 16:30:00,45.2,37.4,29.80,NNE,31,1.0,2.0,74,0.00,,,0.00,163,Wunderground v.1.15,2013-04-13 20:30:00,
2013-04-13 16:40:00,45.0,37.2,29.80,NNE,27,2.0,9.0,74,0.00,,,0.00,144,Wunderground v.1.15,2013-04-13 20:40:00,
2013-04-13 16:50:00,45.0,37.9,29.80,NNE,22,2.0,2.0,76,0.00,,,0.00,116,Wunderground v.1.15,2013-04-13 20:50:00,
2013-04-13 17:00:00,45.0,37.9,29.81,NE,40,1.0,1.0,76,0.00,,,0.00,88,Wunderground v.1.15,2013-04-13 21:00:00,
2013-04-13 17:10:00,45.0,37.6,29.81,NNE,20,0.0,0.0,75,0.00,,,0.00,60,Wunderground v.1.15,2013-04-13 21:10:00,
2013-04-13 17:20:00,44.9,37.8,29.82,NNE,20,0.0,0.0,76,0.00,,,0.00,72,Wunderground v.1.15,2013-04-13 21:20:00,
2013-04-13 17:30:00,44.9,37.8,29.82,NNE,20,0.0,1.0,76,0.00,,,0.00,76,Wunderground v.1.15,2013-04-13 21:30:00,
2013-04-13 17:40:00,44.7,37.3,29.83,NE,49,1.0,7.0,75,0.00,,,0.00,72,Wunderground v.1.15,2013-04-13 21:40:00,
2013-04-13 17:50:00,44.6,37.5,29.83,NE,46,1.0,1.0,76,0.00,,,0.00,62,Wunderground v.1.15,2013-04-13 21:50:00,
2013-04-13 18:00:00,44.5,37.4,29.84,NE,46,0.0,0.0,76,0.00,,,0.00,40,Wunderground v.1.15,2013-04-13 22:00:00,
2013-04-13 18:10:00,44.5,37.7,29.85,NE,46,0.0,0.0,77,0.00,,,0.00,32,Wunderground v.1.15,2013-04-13 22:10:00,
2013-04-13 18:20:00,44.5,38.1,29.85,NE,46,0.0,0.0,78,0.00,,,0.00,19,Wunderground v.1.15,2013-04-13 22:20:00,
2013-04-13 18:30:00,44.2,38.4,29.86,NE,46,0.0,0.0,80,0.00,,,0.00,14,Wunderground v.1.15,2013-04-13 22:30:00,
2013-04-13 18:50:00,43.3,39.1,29.86,NE,46,0.0,4.0,85,0.00,,,0.00,5,Wunderground v.1.15,2013-04-13 22:50:00,
2013-04-13 19:00:00,42.9,38.4,29.86,NE,46,0.0,0.0,84,0.00,,,0.00,0,Wunderground v.1.15,2013-04-13 23:00:00,
2013-04-13 19:10:00,42.5,38.0,29.86,NE,46,0.0,0.0,84,0.00,,,0.00,0,Wunderground v.1.15,2013-04-13 23:10:00,
2013-04-13 19:20:00,42.3,38.1,29.86,NE,46,0.0,0.0,85,0.00,,,0.00,0,Wunderground v.1.15,2013-04-13 23:20:00,
2013-04-13 19:30:00,41.9,38.0,29.87,NE,46,0.0,0.0,86,0.00,,,0.00,0,Wunderground v.1.15,2013-04-13 23:30:00,
2013-04-13 19:40:00,41.6,38.0,29.87,NE,46,0.0,1.0,87,0.00,,,0.00,0,Wunderground v.1.15,2013-04-13 23:40:00,
2013-04-13 19:50:00,41.5,38.2,29.87,NE,46,0.0,1.0,88,0.00,,,0.00,0,Wunderground v.1.15,2013-04-13 23:50:00,
2013-04-13 20:00:00,41.2,38.2,29.87,ESE,112,0.0,0.0,89,0.00,,,0.00,0,Wunderground v.1.15,2013-04-14 00:00:00,
2013-04-13 20:10:00,41.0,38.3,29.88,ESE,112,0.0,0.0,90,0.00,,,0.00,0,Wunderground v.1.15,2013-04-14 00:10:00,
2013-04-13 20:20:00,40.8,38.1,29.88,ESE,112,0.0,0.0,90,0.00,,,0.00,0,Wunderground v.1.15,2013-04-14 00:20:00,
2013-04-13 20:30:00,40.6,38.2,29.88,ESE,112,0.0,0.0,91,0.00,,,0.00,0,Wunderground v.1.15,2013-04-14 00:30:00,
2013-04-13 20:40:00,40.4,38.0,29.88,ESE,112,0.0,0.0,91,0.00,,,0.00,0,Wunderground v.1.15,2013-04-14 00:40:00,
2013-04-13 20:50:00,40.4,38.3,29.89,ESE,112,0.0,0.0,92,0.00,,,0.00,0,Wunderground v.1.15,2013-04-14 00:50:00,
2013-04-13 21:00:00,40.5,38.1,29.89,ESE,112,0.0,0.0,91,0.00,,,0.00,0,Wunderground v.1.15,2013-04-14 01:00:00,
2013-04-13 21:10:00,40.4,38.0,29.90,ESE,112,0.0,0.0,91,0.00,,,0.00,0,Wunderground v.1.15,2013-04-14 01:10:00,
2013-04-13 21:20:00,40.4,38.0,29.90,ESE,113,0.0,0.0,91,0.00,,,0.00,0,Wunderground v.1.15,2013-04-14 01:20:00,
2013-04-13 21:30:00,40.2,37.8,29.90,ESE,112,0.0,0.0,91,0.00,,,0.00,0,Wunderground v.1.15,2013-04-14 01:30:00,
2013-04-13 21:40:00,40.2,38.1,29.90,ESE,112,0.0,0.0,92,0.00,,,0.00,0,Wunderground v.1.15,2013-04-14 01:40:00,
2013-04-13 21:50:00,40.0,37.9,29.90,ESE,112,0.0,0.0,92,0.00,,,0.00,0,Wunderground v.1.15,2013-04-14 01:50:00,
2013-04-13 22:00:00,39.9,37.8,29.90,ESE,112,0.0,0.0,92,0.00,,,0.00,0,Wunderground v.1.15,2013-04-14 02:00:00,
2013-04-13 22:20:00,39.8,37.9,29.90,ESE,112,0.0,0.0,93,0.00,,,0.00,0,Wunderground v.1.15,2013-04-14 02:20:00,
2013-04-13 22:40:00,39.7,37.8,29.90,ESE,114,0.0,1.0,93,0.00,,,0.00,0,Wunderground v.1.15,2013-04-14 02:40:00,
2013-04-13 22:50:00,39.6,37.7,29.90,ESE,114,0.0,1.0,93,0.00,,,0.00,0,Wunderground v.1.15,2013-04-14 02:50:00,
2013-04-13 23:00:00,39.5,37.6,29.88,ESE,114,0.0,0.0,93,0.00,,,0.00,0,Wunderground v.1.15,2013-04-14 03:00:00,
2013-04-13 23:10:00,39.2,37.3,29.89,ESE,121,0.0,0.0,93,0.00,,,0.00,0,Wunderground v.1.15,2013-04-14 03:10:00,
2013-04-13 23:20:00,39.2,37.6,29.90,ESE,121,0.0,0.0,94,0.00,,,0.00,0,Wunderground v.1.15,2013-04-14 03:20:00,
2013-04-13 23:30:00,39.1,37.5,29.90,ESE,121,0.0,0.0,94,0.00,,,0.00,0,Wunderground v.1.15,2013-04-14 03:30:00,
2013-04-13 23:40:00,39.0,37.4,29.90,ESE,121,0.0,4.0,94,0.00,,,0.00,0,Wunderground v.1.15,2013-04-14 03:40:00,
2013-04-13 23:50:00,38.8,37.2,29.90,ESE,121,0.0,4.0,94,0.00,,,0.00,0,Wunderground v.1.15,2013-04-14 03:50:00,